Location: Boussy-Saint-Antoine
(48.6830°N, 2.5330°E)
Time: 19:07:07
(UTC+01:00)

ISS - Visible Passes

Search period start: 21 January 2019 00:00
Search period end: 31 January 2019 00:00
Orbit: 404 x 410 km, 51.6° (Epoch: 22 January)

Date Brightness Start Highest point End Pass type
(mag) Time Alt. Az. Time Alt. Az. Time Alt. Az.
22 Jan -1.6 19:28:46 10° S 19:30:01 16° SSE 19:30:01 16° SSE visible
23 Jan -1.4 18:38:55 10° SSE 18:40:04 11° SE 18:41:05 10° ESE visible
23 Jan -1.3 20:12:47 10° SW 20:13:49 18° SW 20:13:49 18° SW visible
24 Jan -3.0 19:21:42 10° SW 19:24:46 36° SSE 19:24:48 36° SE visible
25 Jan -2.2 18:30:53 10° SSW 18:33:34 23° SE 18:35:43 13° E visible
25 Jan -2.0 20:06:31 10° WSW 20:08:26 32° WSW 20:08:26 32° WSW visible
26 Jan -3.8 19:15:11 10° WSW 19:18:28 69° SSE 19:19:16 46° E visible
26 Jan -0.2 20:51:54 10° W 20:51:59 11° W 20:51:59 11° W visible
27 Jan -3.2 18:23:59 10° SW 18:27:09 45° SSE 18:30:03 12° ENE visible
27 Jan -2.5 20:00:24 10° W 20:02:46 40° WNW 20:02:46 40° WNW visible
28 Jan -3.8 19:08:55 10° WSW 19:12:13 73° NNW 19:13:30 34° ENE visible
28 Jan -0.5 20:45:47 10° WNW 20:46:13 13° WNW 20:46:13 13° WNW visible
29 Jan -3.8 18:17:30 10° WSW 18:20:48 82° SSE 18:24:07 10° ENE visible
29 Jan -2.8 19:54:17 10° W 19:56:55 42° NW 19:56:55 42° NW visible
30 Jan -3.4 19:02:46 10° W 19:06:01 53° N 19:07:36 26° ENE visible
30 Jan -0.7 20:39:34 10° WNW 20:40:19 16° WNW 20:40:19 16° WNW visible
